This is the latest recevied weather packets stored in our database for station/object KD1KE. If no packets are shown the sender has not sent any weather packets the latest 1 day(s).
| Time | Temp. | Humidity | Pressure | Rain* | Wind** | Luminosity | Snow |
|---|---|---|---|---|---|---|---|
| 1778009411 | 22.78° C | 54% | 1003.7 hPa | 0 mm | 1.79 m/s, 235° | - | - |
| 1778008899 | 23.33° C | 55% | 1004.1 hPa | 0 mm | 1.34 m/s, 237° | - | - |
| 1778008751 | 23.33° C | 54% | 1004 hPa | 0 mm | 1.79 m/s, 239° | - | - |
| 1778008358 | 23.33° C | 53% | 1004 hPa | 0 mm | 1.79 m/s, 229° | - | - |
| 1778008090 | 23.33° C | 53% | 1004 hPa | 0 mm | 1.34 m/s, 230° | - | - |
| 1778007820 | 23.33° C | 52% | 1004.1 hPa | 0 mm | 1.34 m/s, 237° | - | - |
| 1778007430 | 23.33° C | 53% | 1004 hPa | 0 mm | 1.34 m/s, 233° | - | - |
| 1778007280 | 23.33° C | 53% | 1004.2 hPa | 0 mm | 1.34 m/s, 234° | - | - |
| 1778006769 | 23.33° C | 54% | 1004.2 hPa | 0 mm | 1.79 m/s, 231° | - | - |
| 1778006739 | 23.33° C | 54% | 1004.2 hPa | 0 mm | 1.79 m/s, 229° | - | - |
| 1778006199 | 23.33° C | 53% | 1004.2 hPa | 0 mm | 1.79 m/s, 236° | - | - |
| 1778006111 | 23.33° C | 52% | 1004.3 hPa | 0 mm | 1.34 m/s, 239° | - | - |
| 1778005660 | 23.33° C | 52% | 1004.3 hPa | 0 mm | 0.89 m/s, 239° | - | - |
| 1778005450 | 23.33° C | 52% | 1004.4 hPa | 0 mm | 1.34 m/s, 235° | - | - |
| 1778005163 | 23.33° C | 54% | 1004.4 hPa | 0 mm | 1.34 m/s, 227° | - | - |
| 1778005120 | 23.33° C | 54% | 1004.4 hPa | 0 mm | 1.34 m/s, 227° | - | - |
| 1778004790 | 22.78° C | 54% | 1004.4 hPa | 0 mm | 1.79 m/s, 229° | - | - |
| 1778004579 | 22.78° C | 55% | 1004.3 hPa | 0 mm | 1.79 m/s, 234° | - | - |
| 1778004131 | 22.78° C | 54% | 1004.4 hPa | 0 mm | 1.79 m/s, 233° | - | - |
| 1778004038 | 22.22° C | 55% | 1004.4 hPa | 0 mm | 1.79 m/s, 235° | - | - |
| 1778003501 | 22.22° C | 54% | 1004.6 hPa | 0 mm | 1.79 m/s, 249° | - | - |
| 1778003469 | 22.22° C | 54% | 1004.6 hPa | 0 mm | 1.79 m/s, 249° | - | - |
| 1778002959 | 22.22° C | 55% | 1004.7 hPa | 0 mm | 1.79 m/s, 241° | - | - |
| 1778002811 | 22.22° C | 55% | 1004.7 hPa | 0 mm | 1.79 m/s, 236° | - | - |
| 1778002420 | 22.22° C | 56% | 1004.9 hPa | 0 mm | 1.34 m/s, 225° | - | - |
* Rain latest hour (hover to see other rain measurements)
** Current wind speed in m/s (hover to see current wind gust speed)